{"data":{"norad_id":54003,"intl_designator":"2022-125AR","name":"STARLINK-5114","alt_names":[],"object_type":"PAYLOAD","status":"ACTIVE","operator":null,"country":"US","launch_date":"2022-10-05","launch_site_code":"AFWTR","launch_vehicle":null,"mission":null,"orbit_class":"UNKNOWN","rcs_meters":null,"size_class":null,"mass_kg":null,"dimensions":null,"purposes":["comms"],"wikipedia_slug":null,"has_3d_model":false,"image_url":null,"decayed_at":null,"tle_current":{"epoch":"2026-05-24T17:19:34.185216Z","epoch_age_seconds":102600,"freshness":"FRESH","line1":"1 54003U 22125AR  26144.72192344  .00000504  00000+0  49771-4 0  9993","line2":"2 54003  53.2133 232.5995 0001599  81.9548 278.1626 15.08835468200940","mean_motion":15.08835468,"eccentricity":0.0001599,"inclination_deg":53.2133,"raan_deg":232.5995,"arg_perigee_deg":81.9548,"mean_anomaly_deg":278.1626,"bstar":4.9771e-5,"rev_number":20094,"period_min":95.437841337913,"perigee_km":538.65107022051,"apogee_km":540.86341279894,"semimajor_km":6917.8942415097,"source":"CELESTRAK","updated_at":"2026-05-25T13:38:17.624484Z"}}}